Back to catalog

FLOCK 4Q 27

AliveScienceSSO
NORAD 58282·PAYLOAD·🇺🇸 United States

Launched Nov 11, 2023 from Vandenberg Space Force Base

Loading…

Next Passes (next 24 hours)

TLE

FreshSource: Space-Track

Epoch: Sep 14, 2026, 05:40 UTC

1 58282U 23174AC  26257.23672120  .00032587  00000-0  33659-3 0  9991
2 58282  97.3726 351.1365 0006035 223.1419 136.9368 15.64693579159625

Track FLOCK 4Q 27 in real time with AllMySat

Download on the App Store